Regional Weather Roundup
Issued by NWS

Home | Current Version | Previous Version | Text Only | Print | Product List | Glossary Off
Versions: 1 2 3 4 5 6 7 8 9 10 11 12 13 14 15 16 17 18 19 20 21 22 23 24 25 26 27 28 29 30 31 32 33 34 35 36 37 38 39 40 41 42 43 44 45 46 47 48 49 50

000
ASUS43 KFSD 201210
RWRSD

WEATHER ROUNDUP FOR SOUTH DAKOTA
NATIONAL WEATHER SERVICE SIOUX FALLS SD
700 AM CDT SUN AUG 20 2017

NOTE: "FAIR" INDICATES FEW OR NO CLOUDS BELOW 12,000 FEET WITH NO
SIGNIFICANT WEATHER AND/OR OBSTRUCTIONS TO VISIBILITY.


SDZ001>005-009-010-012>017-201300-
NORTHWEST AND NORTH CENTRAL SOUTH DAKOTA

CITY           SKY/WX    TMP DP  RH WIND       PRES   REMARKS
BUFFALO          N/A     57  43  59 NE16      29.98S
FAITH            N/A     61  47  59 NE15      30.01R
MOBRIDGE       CLOUDY    60  54  80 N6        30.01R
$$

SDZ012>016-024>037-041>051-057-063-072>074-201300-
SOUTHWEST AND SOUTH CENTRAL SOUTH DAKOTA

CITY           SKY/WX    TMP DP  RH WIND       PRES   REMARKS
RAPID CTY ARPT CLEAR     56  47  71 NW7       30.05R
PIERRE         CLOUDY    64  55  72 N18       29.96R
CUSTER         CLEAR     55  42  61 NE14      30.13R
ELLSWORTH AFB  PTCLDY    56  48  73 CALM      30.05R
PHILIP         CLOUDY    65  53  65 E7        29.99R
PINE RIDGE     CLEAR     57  51  80 NE6       30.01R
SPEARFISH      FAIR      59  46  63 NE12      30.08R
WINNER         FAIR      65  63  93 E8        29.93R
$$

SDZ004>011-016>023-039-040-201300-
NORTHEAST SOUTH DAKOTA

CITY           SKY/WX    TMP DP  RH WIND       PRES   REMARKS
ABERDEEN       CLOUDY    63  57  81 N7        29.96S
WATERTOWN      CLOUDY    62  62 100 N6        29.92F FOG
BROOKINGS      CLEAR     62  61  96 N6        29.92R
SISSETON         N/A     66  57  72 NW12      29.92R
$$

SDZ017-020-022-023-036>040-048>070-201300-
SOUTHEAST SOUTH DAKOTA

CITY           SKY/WX    TMP DP  RH WIND       PRES   REMARKS
SIOUX FALLS    PTCLDY    64  62  93 W5        29.92R
HURON          PTCLDY    63  62  97 N8        29.92R
CHAMBERLAIN    CLEAR     66  62  85 N7G16     29.91F
MITCHELL       PTCLDY    64  63  96 CALM      29.90S FOG
YANKTON        PTCLDY    63  60  90 NW6       29.91R
$$

ABBREVIATIONS USED IN REMARKS
   TC - TEMPERATURE IN CELSIUS
  WCI - WIND CHILL INDEX
   HX - HEAT INDEX
  VSB - VISIBILITY




USA.gov is the U.S. government's official web portal to all federal, state and local government web resources and services.